Regional Weather Roundup
Issued by NWS Newport/Morehead, NC

Current Version | Previous Version | Graphics & Text | Print | Product List | Glossary On
Versions: 1 2 3 4 5 6 7 8 9 10 11 12 13 14 15 16 17 18 19 20 21 22 23 24 25 26 27 28 29 30 31 32 33 34 35 36 37 38 39 40 41 42 43 44 45 46 47 48 49 50
000 ASUS42 KMHX 281425 RWRMHX WEATHER ROUNDUP FOR EASTERN NORTH CAROLINA NATIONAL WEATHER SERVICE NEWPORT/MOREHEAD CITY NC 1000 AM EDT THU MAY 28 2015 NOTE: "FAIR" INDICATES FEW OR NO CLOUDS BELOW 12,000 FEET WITH NO SIGNIFICANT WEATHER AND/OR OBSTRUCTIONS TO VISIBILITY NCZ015>017-031-032-045>047-102-103-281500- NORTH COAST CITY SKY/WX TMP DP RH WIND PRES REMARKS EDENTON PTSUNNY 77 67 73 SW8 30.25F ELIZABETH CITY MOSUNNY 77 67 71 S13 30.25F KITTY HAWK CLOUDY 75 63 66 S6 30.26R MANTEO CLOUDY 74 64 69 S9 30.27R $$ NCZ045>047-081-094-103-104-281500- CENTRAL COAST CITY SKY/WX TMP DP RH WIND PRES REMARKS FRISCO SUNNY 77 60 55 S8 30.27S SWANQUARTER N/A 79 N/A N/A S9 30.24S $$ NCZ095-097-098-100-101-281500- SOUTHERN COAST CITY SKY/WX TMP DP RH WIND PRES REMARKS BEAUFORT MOSUNNY 77 65 66 VRB7 30.26S CEDAR ISLAND N/A 79 N/A N/A E5G12 30.30S JACKSONVILLE SUNNY 78 63 59 VRB3 30.26R PINEY ISLAND PTSUNNY N/A N/A N/A MISG 30.26S WILMINGTON SUNNY 78 62 57 S7 30.25F $$ NCZ011>013-027>030-043-044-078>080-089-090>093-098-281500- COASTAL PLAIN CITY SKY/WX TMP DP RH WIND PRES REMARKS AHOSKIE MOSUNNY 75 67 77 CALM 30.24S CLINTON PTSUNNY 77 69 74 SE3 30.26F ELIZABETHTOWN CLOUDY 76 65 67 S3 30.25F GOLDSBORO PTSUNNY 76 66 70 S8 30.23F GREENVILLE MOSUNNY 77 68 73 S9 30.26S HAVELOCK PTSUNNY 77 63 61 S6 30.27S KENANSVILLE MOSUNNY 75 65 69 SW3 30.27F KINSTON MOSUNNY 79 66 65 S6 30.26F NEW BERN SUNNY 79 64 60 CALM 30.27S RICHLANDS CLOUDY 77 63 61 SE6 30.26F ROCKY MOUNT CLOUDY 75 70 84 S7 30.25S WASHINGTON MOSUNNY 76 65 68 S6 30.26S WHITEVILLE PTSUNNY 77 64 63 SE3 30.25S $$ AMZ130-135-150-152-154-156-158-170-250-252-270-ANZ085-086-088-633-658-670-281500- MARINE OBSERVATIONS STATION/POSITION TIME TEMP WIND PRES WAVE SWELL AIR SEA DIR/SP/G HT/PER HT/PER (UTC) (F) (DEG/KT/KT) (MB) (FT/S) (FT/S) CHESAPEAKE LIGHT 1400 67 190/ 18/ 18 1024.2 64 E VA BEACH 1350 66 64 160/ 8/ 8 1024.5 3/ 7 3/ 7 DUCK 1400 74 54 190/ 10/ 11 1023.7 2 E DUCK 1311 61 N/A 2/ 7 OREGON INLET 1400 75 76 170/ 9/ 11 1024.9 13E OREGON INLT 1400 70 N/A 3/ 8 HATTERAS CG 1400 76 74 150/ 6/ 7 1024.5 DIAMOND BUOY 1350 75 77 160/ 4/ 8 1025.1 2/ 8 2/ 8 CAPE LOOKOUT 1400 74 120/ 6/ 7 1024.6 BEAUFORT LAB 1400 76 75 180/ 6/ 8 1024.0 27 SE WRIGHTSVLE 1400 76 150/ 4/ 6 N/A 5 SE WRIGHTSVLE 1308 76 76 160/ 4/ 8 1024.7 225 S CAPE HAT 1350 73 74 60/ 12/ 16 1023.4 5/ 8 3/ 8 41 SE CHARLESTON 1350 76 78 70/ 8/ 10 1023.4 3/ 8 3/ 8 $$

USA.gov is the U.S. government's official web portal to all federal, state and local government web resources and services.